DW0332 Weather Reports


Display with metric or nautical units.
time (UTC)temp
F
wind
direction
speed
MPH
gust
MPH
rain 1hr
in
rain 24hr
in
rain mn
in
humidity
%
barometer
mb
20260506061534 49 228 6.0 11.0 0.00 0.00 0.00 85 1010.7
20260506044535 50 233 7.0 13.0 0.00 0.00 0.00 84 1011.0
20260506043023 50 215 5.0 16.0 0.00 0.00 0.00 84 1010.9
20260506041517 50 232 6.0 12.0 0.00 0.00 0.00 84 1010.7
20260506040115 50 221 5.0 10.0 0.00 0.00 0.00 84 1010.6
20260506034513 51 197 6.0 13.0 0.00 0.00 0.00 84 1010.8
20260506033014 51 200 8.0 17.0 0.00 0.00 0.00 84 1010.6
20260506031513 51 221 4.0 9.0 0.00 0.00 0.00 84 1010.5
20260506030015 50 209 8.0 12.0 0.00 0.00 0.00 84 1010.7
20260506024517 51 202 4.0 11.0 0.00 0.00 0.00 83 1010.7
20260506023017 51 207 5.0 9.0 0.00 0.00 0.00 82 1010.6
20260506021510 52 196 5.0 9.0 0.00 0.00 0.00 81 1010.7
20260506020009 54 186 4.0 9.0 0.00 0.00 0.00 78 1010.8
20260506014513 54 238 3.0 10.0 0.00 0.00 0.00 78 1011.0
20260506013009 54 208 5.0 9.0 0.00 0.00 0.00 78 1010.8
20260506011525 54 213 3.0 7.0 0.00 0.00 0.00 78 1010.4
20260506010009 56 184 3.0 9.0 0.00 0.00 0.00 75 1010.5
20260506004516 56 244 3.0 10.0 0.00 0.00 0.00 74 1010.4
20260506003008 56 211 4.0 10.0 0.00 0.00 0.00 74 1010.3
20260506001606 57 229 3.0 11.0 0.00 0.00 0.00 72 1009.9
20260506000005 60 215 5.0 13.0 0.00 0.00 0.00 69 1009.4
20260505234504 61 207 7.0 15.0 0.00 0.00 0.00 66 1009.3
20260505233002 62 244 6.0 19.0 0.00 0.00 0.00 67 1009.2
20260505231559 56 227 12.0 20.0 0.00 0.00 0.00 77 1008.7
20260505230101 53 244 10.0 21.0 0.00 0.00 0.00 79 1007.7
20260505224558 54 221 10.0 23.0 0.00 0.00 0.00 79 1007.2
20260505223100 54 223 11.0 24.0 0.00 0.00 0.00 78 1007.0
20260505221605 55 240 12.0 27.0 0.00 0.00 0.00 78 1006.9
20260505220107 55 214 13.0 20.0 0.00 0.00 0.00 78 1006.7
20260505214600 55 223 12.0 21.0 0.00 0.00 0.00 78 1006.7
20260505213055 54 260 12.0 22.0 0.00 0.00 0.00 78 1006.5
20260505211554 55 204 11.0 22.0 0.00 0.00 0.00 78 1006.4
20260505210054 56 281 13.0 21.0 0.00 0.00 0.00 76 1006.6
20260505204558 57 217 12.0 25.0 0.00 0.00 0.00 75 1006.5
20260505203051 57 220 12.0 22.0 0.00 0.00 0.00 75 1006.6
20260505201551 57 193 12.0 21.0 0.00 0.00 0.00 75 1006.7
20260505200048 58 186 9.0 21.0 0.00 0.00 0.00 75 1006.9
20260505194556 57 232 10.0 19.0 0.00 0.00 0.00 77 1006.9
20260505193044 56 215 9.0 21.0 0.00 0.00 0.00 77 1007.4
20260505191541 57 223 10.0 22.0 0.00 0.00 0.00 77 1007.6
20260505190042 56 290 10.0 22.0 0.00 0.00 0.00 78 1008.0
20260505184538 56 215 10.0 21.0 0.00 0.00 0.00 76 1008.0
20260505183047 57 256 6.0 19.0 0.00 0.00 0.00 76 1008.0
20260505181537 57 187 8.0 18.0 0.00 0.00 0.00 76 1008.0
20260505180035 56 201 7.0 18.0 0.00 0.00 0.00 78 1008.1
20260505174533 57 186 8.0 22.0 0.00 0.00 0.00 75 1008.4
20260505173032 56 213 5.0 12.0 0.00 0.00 0.00 77 1008.7
20260505171528 57 227 8.0 14.0 0.00 0.00 0.00 75 1009.0
20260505170030 56 248 7.0 15.0 0.00 0.00 0.00 78 1009.7
20260505164531 55 205 8.0 14.0 0.00 0.00 0.00 77 1009.6
20260505163024 57 229 3.0 11.0 0.00 0.00 0.00 76 1009.9
20260505161519 56 153 6.0 15.0 0.00 0.00 0.00 77 1010.0
20260505153014 55 207 8.0 15.0 0.00 0.00 0.00 78 1010.8
20260505151511 54 184 8.0 14.0 0.00 0.00 0.00 80 1010.7
20260505124601 52 250 8.0 18.0 0.00 0.00 0.00 81 1010.6
20260505123056 52 229 8.0 15.0 0.00 0.00 0.00 82 1010.6
20260505121550 52 199 5.0 11.0 0.00 0.00 0.00 82 1010.6
20260505120100 51 202 6.0 12.0 0.00 0.00 0.00 82 1010.8
20260505114545 51 229 6.0 16.0 0.00 0.00 0.00 83 1011.1
20260505113101 50 206 9.0 15.0 0.00 0.00 0.00 83 1011.2
20260505111543 50 225 8.0 14.0 0.00 0.00 0.00 83 1011.2
20260505101541 49 246 5.0 14.0 0.00 0.00 0.00 83 1010.9
20260505100038 49 242 6.0 15.0 0.00 0.00 0.00 84 1010.9
20260505094538 48 225 4.0 10.0 0.00 0.00 0.00 85 1010.9
20260505093037 47 211 4.0 10.0 0.00 0.00 0.00 85 1010.9
20260505091536 47 215 4.0 7.0 0.00 0.00 0.00 85 1011.0
20260505090035 47 225 4.0 9.0 0.00 0.00 0.00 85 1011.1
20260505084543 47 207 4.0 7.0 0.00 0.00 0.00 85 1011.2
20260505083031 48 208 5.0 9.0 0.00 0.00 0.00 84 1011.2
20260505081530 48 200 5.0 10.0 0.00 0.00 0.00 84 1011.2
20260505080031 48 203 5.0 9.0 0.00 0.00 0.00 83 1011.3
20260505074528 48 213 6.0 10.0 0.00 0.00 0.00 83 1011.3
20260505073027 48 237 6.0 10.0 0.00 0.00 0.00 84 1011.3
20260505071525 48 229 7.0 10.0 0.00 0.00 0.00 84 1011.2
20260505070033 48 244 7.0 11.0 0.00 0.00 0.00 83 1011.1